Location: Elstree
(51.6403°N, 0.2969°W)
Time: 13:52:55
(UTC+00:00)

Cosmos 1354 Rocket - Pass Details

Date: 25 June 2021
Orbit: 764 x 783 km, 74.0° (Epoch: 25 July)

Event Time Altitude Azimuth Distance (km) Brightness Sun altitude
Rises 22:09:59 0° 331° (NNW) 3,285 9.5 -10.9°
Reaches altitude 10° 22:12:28 10° 325° (NW) 2,352 8.0 -11.1°
Maximum altitude 22:17:32 46° 254° (WSW) 1,054 4.8 -11.4°
Enters shadow 22:22:09 12° 184° (S) 2,180 5.8 -11.7°
